Time,TemperatureF,DewpointF,PressureIn,WindDirection,WindDirectionDegrees,WindSpeedMPH,WindSpeedGustMPH,Humidity,HourlyPrecipIn,Conditions,Clouds,dailyrainin,SoftwareType,DateUTC
2013-01-28 08:33:00,27.0,26.0,-100.00,South,190,2.0,3.0,95,-99.99,,,-99.99,,2013-01-28 13:33:00,
2013-01-28 08:42:00,27.0,26.0,-100.00,South,190,2.0,3.0,95,-99.99,,,-99.99,,2013-01-28 13:42:00,
2013-01-28 08:52:00,27.0,26.0,-100.00,South,185,1.0,4.0,95,-99.99,,,-99.99,,2013-01-28 13:52:00,
2013-01-28 09:03:00,27.0,26.0,-100.00,South,185,2.0,4.0,95,-99.99,,,-99.99,,2013-01-28 14:03:00,
2013-01-28 09:12:00,27.0,26.0,-100.00,South,185,2.0,4.0,95,-99.99,,,-99.99,,2013-01-28 14:12:00,
2013-01-28 09:23:00,27.0,26.0,-100.00,SSW,195,4.0,5.0,95,-99.99,,,-99.99,,2013-01-28 14:23:00,
2013-01-28 09:33:00,27.0,26.0,-100.00,SSW,195,2.0,6.0,95,-99.99,,,-99.99,,2013-01-28 14:33:00,
2013-01-28 09:43:00,27.0,26.0,-100.00,SSW,195,2.0,6.0,95,-99.99,,,-99.99,,2013-01-28 14:43:00,
2013-01-28 09:52:00,27.0,26.0,-100.00,South,190,1.0,4.0,95,-99.99,,,-99.99,,2013-01-28 14:52:00,
2013-01-28 10:03:00,27.0,26.0,-100.00,SSW,195,2.0,5.0,95,-99.99,,,-99.99,,2013-01-28 15:03:00,
2013-01-28 10:13:00,27.0,26.0,-100.00,SSW,195,2.0,5.0,95,-99.99,,,-99.99,,2013-01-28 15:13:00,
2013-01-28 10:23:00,28.0,27.0,-100.00,SSW,195,2.0,4.0,96,-99.99,,,-99.99,,2013-01-28 15:23:00,
2013-01-28 10:33:00,28.0,27.0,-100.00,South,170,2.0,4.0,96,-99.99,,,-99.99,,2013-01-28 15:33:00,
2013-01-28 10:43:00,28.0,27.0,-100.00,South,170,2.0,4.0,96,-99.99,,,-99.99,,2013-01-28 15:43:00,
2013-01-28 10:53:00,29.0,28.0,-100.00,SSW,195,2.0,5.0,96,-99.99,,,-99.99,,2013-01-28 15:53:00,
2013-01-28 11:04:00,29.0,28.0,-100.00,SSE,155,4.0,6.0,96,-99.99,,,-99.99,,2013-01-28 16:04:00,
2013-01-28 11:13:00,29.0,28.0,-100.00,SSE,155,4.0,6.0,96,-99.99,,,-99.99,,2013-01-28 16:13:00,
2013-01-28 11:22:00,29.0,28.0,-100.00,SSW,200,4.0,7.0,96,-99.99,,,-99.99,,2013-01-28 16:22:00,
2013-01-28 11:33:00,29.0,28.0,-100.00,South,170,2.0,7.0,96,-99.99,,,-99.99,,2013-01-28 16:33:00,
2013-01-28 11:43:00,29.0,28.0,-100.00,South,170,2.0,7.0,96,-99.99,,,-99.99,,2013-01-28 16:43:00,
2013-01-28 11:52:00,29.0,28.0,-100.00,SSW,195,3.0,5.0,96,-99.99,,,-99.99,,2013-01-28 16:52:00,
2013-01-28 12:02:00,29.0,28.0,-100.00,SW,230,2.0,6.0,96,-99.99,,,-99.99,,2013-01-28 17:02:00,
2013-01-28 12:12:00,29.0,28.0,-100.00,SW,230,2.0,6.0,96,-99.99,,,-99.99,,2013-01-28 17:12:00,
2013-01-28 12:23:00,29.0,28.0,-100.00,SSW,200,4.0,6.0,96,-99.99,,,-99.99,,2013-01-28 17:23:00,
2013-01-28 12:33:00,29.0,28.0,-100.00,SSW,205,2.0,4.0,96,-99.99,,,-99.99,,2013-01-28 17:33:00,
2013-01-28 12:42:00,29.0,28.0,-100.00,SSW,205,2.0,4.0,96,-99.99,,,-99.99,,2013-01-28 17:42:00,
2013-01-28 12:52:00,29.0,28.0,-100.00,SE,145,4.0,6.0,96,-99.99,,,-99.99,,2013-01-28 17:52:00,
2013-01-28 13:03:00,30.0,29.0,-100.00,SE,140,2.0,5.0,96,-99.99,,,-99.99,,2013-01-28 18:03:00,
2013-01-28 13:13:00,30.0,29.0,-100.00,SE,140,2.0,5.0,96,-99.99,,,-99.99,,2013-01-28 18:13:00,
2013-01-28 13:23:00,30.0,29.0,-100.00,SE,140,4.0,6.0,95,-99.99,,,-99.99,,2013-01-28 18:23:00,
2013-01-28 13:33:00,30.0,29.0,-100.00,SE,145,4.0,6.0,95,-99.99,,,-99.99,,2013-01-28 18:33:00,
2013-01-28 13:42:00,30.0,29.0,-100.00,SE,145,4.0,6.0,95,-99.99,,,-99.99,,2013-01-28 18:42:00,
2013-01-28 13:52:00,31.0,29.0,-100.00,South,175,2.0,5.0,95,-99.99,,,-99.99,,2013-01-28 18:52:00,
2013-01-28 14:03:00,31.0,30.0,-100.00,East,85,3.0,5.0,94,-99.99,,,-99.99,,2013-01-28 19:03:00,
2013-01-28 14:13:00,31.0,30.0,-100.00,East,85,3.0,5.0,94,-99.99,,,-99.99,,2013-01-28 19:13:00,
2013-01-28 14:22:00,31.0,30.0,-100.00,SE,125,4.0,6.0,94,-99.99,,,-99.99,,2013-01-28 19:22:00,
2013-01-28 14:33:00,32.0,30.0,-100.00,SE,140,2.0,6.0,93,-99.99,,,-99.99,,2013-01-28 19:33:00,
2013-01-28 14:42:00,32.0,30.0,-100.00,SE,140,2.0,6.0,93,-99.99,,,-99.99,,2013-01-28 19:42:00,
2013-01-28 14:52:00,32.0,30.0,-100.00,East,95,4.0,7.0,93,-99.99,,,-99.99,,2013-01-28 19:52:00,
2013-01-28 15:03:00,32.0,30.0,-100.00,ESE,120,5.0,6.0,92,-99.99,,,-99.99,,2013-01-28 20:03:00,
2013-01-28 15:12:00,32.0,30.0,-100.00,ESE,120,5.0,6.0,92,-99.99,,,-99.99,,2013-01-28 20:12:00,
2013-01-28 15:22:00,32.0,30.0,-100.00,East,100,5.0,8.0,92,-99.99,,,-99.99,,2013-01-28 20:22:00,
2013-01-28 15:33:00,32.0,30.0,-100.00,ESE,110,4.0,7.0,91,-99.99,,,-99.99,,2013-01-28 20:33:00,
2013-01-28 15:43:00,32.0,30.0,-100.00,ESE,110,4.0,7.0,91,-99.99,,,-99.99,,2013-01-28 20:43:00,
2013-01-28 15:52:00,32.0,30.0,-100.00,ESE,115,4.0,7.0,91,-99.99,,,-99.99,,2013-01-28 20:52:00,
2013-01-28 16:03:00,33.0,30.0,-100.00,East,90,3.0,7.0,90,-99.99,,,-99.99,,2013-01-28 21:03:00,
2013-01-28 16:12:00,33.0,30.0,-100.00,East,90,3.0,7.0,90,-99.99,,,-99.99,,2013-01-28 21:12:00,
2013-01-28 16:23:00,33.0,30.0,-100.00,East,90,3.0,6.0,90,-99.99,,,-99.99,,2013-01-28 21:23:00,
2013-01-28 16:33:00,32.0,30.0,-100.00,NNE,15,1.0,4.0,90,-99.99,,,-99.99,,2013-01-28 21:33:00,
2013-01-28 16:43:00,32.0,30.0,-100.00,NNE,15,1.0,4.0,90,-99.99,,,-99.99,,2013-01-28 21:43:00,
2013-01-28 16:52:00,32.0,30.0,-100.00,ENE,65,3.0,6.0,90,-99.99,,,-99.99,,2013-01-28 21:52:00,
2013-01-28 17:02:00,32.0,29.0,-100.00,NE,40,2.0,5.0,90,-99.99,,,-99.99,,2013-01-28 22:02:00,
2013-01-28 17:12:00,32.0,29.0,-100.00,NE,40,2.0,5.0,90,-99.99,,,-99.99,,2013-01-28 22:12:00,
2013-01-28 17:23:00,32.0,29.0,-100.00,NE,55,5.0,8.0,91,-99.99,,,-99.99,,2013-01-28 22:23:00,
2013-01-28 17:33:00,32.0,29.0,-100.00,NNE,25,4.0,6.0,91,-99.99,,,-99.99,,2013-01-28 22:33:00,
2013-01-28 17:42:00,32.0,29.0,-100.00,NNE,25,4.0,6.0,91,-99.99,,,-99.99,,2013-01-28 22:42:00,
2013-01-28 17:52:00,31.0,29.0,-100.00,NNE,25,3.0,7.0,91,-99.99,,,-99.99,,2013-01-28 22:52:00,
2013-01-28 18:03:00,31.0,29.0,-100.00,NNE,20,4.0,5.0,92,-99.99,,,-99.99,,2013-01-28 23:03:00,
2013-01-28 18:12:00,31.0,29.0,-100.00,NNE,20,4.0,5.0,92,-99.99,,,-99.99,,2013-01-28 23:12:00,
2013-01-28 18:22:00,31.0,29.0,-100.00,NNE,25,2.0,4.0,92,-99.99,,,-99.99,,2013-01-28 23:22:00,
2013-01-28 18:32:00,32.0,30.0,-100.00,NNE,20,1.0,4.0,92,-99.99,,,-99.99,,2013-01-28 23:32:00,
2013-01-28 18:42:00,32.0,30.0,-100.00,NNE,20,1.0,4.0,92,-99.99,,,-99.99,,2013-01-28 23:42:00,
2013-01-28 18:52:00,32.0,30.0,-100.00,NNE,30,1.0,2.0,92,-99.99,,,-99.99,,2013-01-28 23:52:00,
2013-01-28 19:02:00,32.0,30.0,-100.00,NNE,15,1.0,2.0,92,-99.99,,,-99.99,,2013-01-29 00:02:00,
2013-01-28 19:12:00,32.0,30.0,-100.00,NNE,15,1.0,2.0,92,-99.99,,,-99.99,,2013-01-29 00:12:00,
2013-01-28 19:22:00,32.0,30.0,-100.00,WSW,250,1.0,3.0,92,-99.99,,,-99.99,,2013-01-29 00:22:00,
2013-01-28 19:33:00,31.0,29.0,-100.00,NNW,335,1.0,4.0,92,-99.99,,,-99.99,,2013-01-29 00:33:00,
2013-01-28 19:42:00,31.0,29.0,-100.00,NNW,335,1.0,4.0,92,-99.99,,,-99.99,,2013-01-29 00:42:00,
2013-01-28 19:52:00,31.0,29.0,-100.00,NNW,340,1.0,4.0,92,-99.99,,,-99.99,,2013-01-29 00:52:00,
2013-01-28 20:02:00,31.0,29.0,-100.00,NNE,30,1.0,2.0,92,-99.99,,,-99.99,,2013-01-29 01:02:00,
2013-01-28 20:12:00,31.0,29.0,-100.00,NNE,30,1.0,2.0,92,-99.99,,,-99.99,,2013-01-29 01:12:00,
2013-01-28 20:23:00,31.0,29.0,-100.00,NNE,15,3.0,5.0,92,-99.99,,,-99.99,,2013-01-29 01:23:00,
2013-01-28 20:32:00,31.0,29.0,-100.00,SE,135,1.0,4.0,92,-99.99,,,-99.99,,2013-01-29 01:32:00,
2013-01-28 20:42:00,31.0,29.0,-100.00,SE,135,1.0,4.0,92,-99.99,,,-99.99,,2013-01-29 01:42:00,
2013-01-28 20:52:00,31.0,29.0,-100.00,North,355,4.0,5.0,92,-99.99,,,-99.99,,2013-01-29 01:52:00,
2013-01-28 21:02:00,31.0,29.0,-100.00,North,5,3.0,4.0,92,-99.99,,,-99.99,,2013-01-29 02:02:00,
2013-01-28 21:12:00,31.0,29.0,-100.00,North,5,3.0,4.0,92,-99.99,,,-99.99,,2013-01-29 02:12:00,
2013-01-28 21:22:00,31.0,29.0,-100.00,NNW,340,2.0,4.0,92,-99.99,,,-99.99,,2013-01-29 02:22:00,
2013-01-28 21:33:00,31.0,29.0,-100.00,NW,315,3.0,5.0,92,-99.99,,,-99.99,,2013-01-29 02:33:00,
2013-01-28 21:42:00,31.0,29.0,-100.00,NW,315,3.0,5.0,92,-99.99,,,-99.99,,2013-01-29 02:42:00,
2013-01-28 21:52:00,31.0,29.0,-100.00,North,355,2.0,5.0,92,-99.99,,,-99.99,,2013-01-29 02:52:00,
2013-01-28 22:03:00,31.0,29.0,-100.00,North,355,2.0,5.0,92,-99.99,,,-99.99,,2013-01-29 03:03:00,
2013-01-28 22:12:00,31.0,29.0,-100.00,North,355,2.0,5.0,92,-99.99,,,-99.99,,2013-01-29 03:12:00,
2013-01-28 22:22:00,31.0,29.0,-100.00,NNW,340,1.0,4.0,92,-99.99,,,-99.99,,2013-01-29 03:22:00,
2013-01-28 22:32:00,31.0,29.0,-100.00,NNW,340,3.0,4.0,92,-99.99,,,-99.99,,2013-01-29 03:32:00,
2013-01-28 22:42:00,31.0,29.0,-100.00,NNW,340,3.0,4.0,92,-99.99,,,-99.99,,2013-01-29 03:42:00,
2013-01-28 22:52:00,31.0,29.0,-100.00,NNW,345,1.0,4.0,92,-99.99,,,-99.99,,2013-01-29 03:52:00,
2013-01-28 23:03:00,31.0,29.0,-100.00,North,350,1.0,3.0,92,-99.99,,,-99.99,,2013-01-29 04:03:00,
2013-01-28 23:12:00,31.0,29.0,-100.00,North,350,1.0,3.0,92,-99.99,,,-99.99,,2013-01-29 04:12:00,
2013-01-28 23:22:00,31.0,29.0,-100.00,North,350,1.0,1.0,92,-99.99,,,-99.99,,2013-01-29 04:22:00,
2013-01-28 23:32:00,31.0,29.0,-100.00,South,190,1.0,1.0,92,-99.99,,,-99.99,,2013-01-29 04:32:00,
2013-01-28 23:42:00,31.0,29.0,-100.00,South,190,1.0,1.0,92,-99.99,,,-99.99,,2013-01-29 04:42:00,
2013-01-28 23:52:00,31.0,29.0,-100.00,SSW,195,1.0,3.0,92,-99.99,,,-99.99,,2013-01-29 04:52:00,